Location: C�mpuri de-Sus
(45.9500°N, 22.5500°E)
Time: 12:55:14
(UTC+00:00)

NOSS 3-1 (C) - Pass Details

Date: 24 October 2021
Orbit: 717 x 1491 km, 63.4° (Epoch: 25 November)

Event Time Altitude Azimuth Distance (km) Brightness Sun altitude
Rises 16:23:01 0° 207° (SSW) 3,163 6.7 -10.1°
Reaches altitude 10° 16:25:16 10° 204° (SSW) 2,290 5.9 -10.5°
Maximum altitude 16:30:24 66° 123° (ESE) 910 3.2 -11.4°
Drops below altitude 10° 16:36:28 10° 43° (NE) 2,686 5.4 -12.5°
Enters shadow 16:37:42 - 42° (NE) 3,152 5.7 -12.7°
